• In Belarus
  • List of Countries
  • For 7 days
  • Water Temperature
  • Satellite Maps
  • Weather Map
  • Weather Widgets
  • user-avatar
    Login

    Hourly Weather Tarin Kowt

    Today, 20 April, Saturday

    Time Temperature Precipitation Wind Pressure Humidity
    00:00 +19°C° 0 mm 1 mps 617 mmHg 39%
    01:00 +18°C° 0 mm 1 mps 616 mmHg 39%
    02:00 +17°C° 0 mm 2 mps 616 mmHg 39%
    03:00 +16°C° 0 mm 2 mps 616 mmHg 40%
    04:00 +15°C° 0 mm 1 mps 615 mmHg 42%
    05:00 +16°C° 0 mm 2 mps 616 mmHg 40%
    06:00 +17°C° 0 mm 2 mps 616 mmHg 39%
    07:00 +18°C° 0 mm 2 mps 617 mmHg 37%
    08:00 +19°C° 0 mm 2 mps 617 mmHg 33%
    09:00 +21°C° 0 mm 1 mps 618 mmHg 30%
    10:00 +23°C° 0 mm 1 mps 618 mmHg 26%
    11:00 +24°C° 0 mm 1 mps 618 mmHg 24%
    12:00 +25°C° 0 mm 2 mps 618 mmHg 23%
    13:00 +26°C° 0 mm 2 mps 618 mmHg 21%
    14:00 +26°C° 0 mm 3 mps 618 mmHg 20%
    15:00 +26°C° 0 mm 3 mps 617 mmHg 20%
    16:00 +26°C° 0 mm 4 mps 617 mmHg 19%
    17:00 +25°C° 0 mm 3 mps 617 mmHg 24%
    18:00 +24°C° 0 mm 2 mps 616 mmHg 30%
    19:00 +23°C° 0 mm 1 mps 616 mmHg 35%
    20:00 +22°C° 0.2 mm 1 mps 616 mmHg 35%
    21:00 +22°C° 0.2 mm 1 mps 616 mmHg 35%
    22:00 +20°C° 0.2 mm 2 mps 616 mmHg 36%
    23:00 +19°C° 0 mm 2 mps 616 mmHg 37%

    Tomorrow, 21 April, Sunday

    Time Temperature Precipitation Wind Pressure Humidity
    00:00 +19°C° 0 mm 2 mps 615 mmHg 38%
    01:00 +18°C° 0 mm 2 mps 615 mmHg 39%
    02:00 +18°C° 0 mm 2 mps 615 mmHg 39%
    03:00 +18°C° 0 mm 2 mps 615 mmHg 40%
    04:00 +17°C° 0 mm 2 mps 614 mmHg 40%
    05:00 +18°C° 0 mm 2 mps 615 mmHg 38%
    06:00 +19°C° 0 mm 2 mps 615 mmHg 36%
    07:00 +20°C° 0 mm 2 mps 616 mmHg 34%
    08:00 +21°C° 0 mm 2 mps 616 mmHg 30%
    09:00 +24°C° 0 mm 1 mps 617 mmHg 27%
    10:00 +23°C° 0 mm 0 mps 617 mmHg 23%
    11:00 +26°C° 0 mm 1 mps 617 mmHg 21%
    12:00 +27°C° 0 mm 2 mps 617 mmHg 19%
    13:00 +28°C° 0 mm 2 mps 617 mmHg 16%
    14:00 +28°C° 0 mm 3 mps 617 mmHg 16%
    15:00 +28°C° 0 mm 4 mps 617 mmHg 16%
    16:00 +28°C° 0 mm 5 mps 617 mmHg 15%
    17:00 +27°C° 0 mm 3 mps 616 mmHg 20%
    18:00 +26°C° 0 mm 2 mps 616 mmHg 24%
    19:00 +25°C° 0 mm 1 mps 616 mmHg 28%
    20:00 +24°C° 0 mm 1 mps 616 mmHg 30%
    21:00 +23°C° 0 mm 1 mps 616 mmHg 32%
    22:00 +22°C° 0 mm 1 mps 616 mmHg 33%
    23:00 +21°C° 0 mm 1 mps 616 mmHg 34%

    Day after tomorrow, 22 April, Monday

    Time Temperature Precipitation Wind Pressure Humidity
    00:00 +21°C° 0 mm 1 mps 615 mmHg 36%
    01:00 +20°C° 0 mm 1 mps 615 mmHg 37%
    02:00 +19°C° 0 mm 1 mps 615 mmHg 38%
    03:00 +19°C° 0 mm 1 mps 615 mmHg 39%
    04:00 +18°C° 0 mm 1 mps 615 mmHg 40%
    05:00 +19°C° 0 mm 1 mps 616 mmHg 36%
    06:00 +20°C° 0 mm 1 mps 616 mmHg 32%
    07:00 +20°C° 0 mm 2 mps 617 mmHg 28%
    08:00 +23°C° 0 mm 1 mps 618 mmHg 25%
    09:00 +24°C° 0 mm 1 mps 618 mmHg 21%
    10:00 +25°C° 0 mm 1 mps 619 mmHg 18%
    11:00 +26°C° 0 mm 2 mps 619 mmHg 17%
    12:00 +27°C° 0 mm 2 mps 619 mmHg 16%
    13:00 +28°C° 0 mm 3 mps 619 mmHg 15%
    14:00 +28°C° 0 mm 4 mps 619 mmHg 15%
    15:00 +28°C° 0 mm 4 mps 619 mmHg 15%
    16:00 +28°C° 0 mm 5 mps 618 mmHg 16%
    17:00 +27°C° 0 mm 4 mps 618 mmHg 20%
    18:00 +26°C° 0 mm 2 mps 618 mmHg 25%
    19:00 +23°C° 0 mm 0 mps 618 mmHg 30%
    20:00 +24°C° 0 mm 1 mps 618 mmHg 30%
    21:00 +24°C° 0 mm 1 mps 618 mmHg 29%
    22:00 +23°C° 0 mm 1 mps 618 mmHg 29%
    23:00 +23°C° 0 mm 1 mps 618 mmHg 31%

    23 April, Tuesday

    Time Temperature Precipitation Wind Pressure Humidity
    00:00 +22°C° 0 mm 1 mps 617 mmHg 33%
    01:00 +19°C° 0 mm 0 mps 617 mmHg 35%
    02:00 +21°C° 0.3 mm 1 mps 617 mmHg 36%
    03:00 +21°C° 0.3 mm 1 mps 617 mmHg 37%
    04:00 +20°C° 0.3 mm 1 mps 616 mmHg 37%
    05:00 +21°C° 0.4 mm 1 mps 617 mmHg 36%
    06:00 +21°C° 0.4 mm 1 mps 617 mmHg 35%
    07:00 +21°C° 0.4 mm 1 mps 618 mmHg 35%
    08:00 +22°C° 0.5 mm 1 mps 618 mmHg 33%
    09:00 +23°C° 0.5 mm 1 mps 619 mmHg 31%
    10:00 +24°C° 0.5 mm 2 mps 619 mmHg 30%
    11:00 +25°C° 0 mm 2 mps 619 mmHg 29%
    12:00 +26°C° 0 mm 3 mps 619 mmHg 27%
    13:00 +27°C° 0 mm 3 mps 619 mmHg 26%
    14:00 +28°C° 0 mm 4 mps 619 mmHg 25%
    15:00 +28°C° 0 mm 4 mps 618 mmHg 24%
    16:00 +28°C° 0 mm 5 mps 618 mmHg 22%
    17:00 +27°C° 0.1 mm 3 mps 617 mmHg 28%
    18:00 +25°C° 0.1 mm 2 mps 616 mmHg 34%
    19:00 +24°C° 0.1 mm 1 mps 616 mmHg 40%
    20:00 +24°C° 0.2 mm 2 mps 616 mmHg 39%
    21:00 +22°C° 0.2 mm 3 mps 617 mmHg 38%
    22:00 +22°C° 0.2 mm 4 mps 617 mmHg 37%
    23:00 +22°C° 0.1 mm 3 mps 617 mmHg 42%

    24 April, Wednesday

    Time Temperature Precipitation Wind Pressure Humidity
    00:00 +21°C° 0.1 mm 2 mps 617 mmHg 47%
    01:00 +21°C° 0.1 mm 1 mps 616 mmHg 52%
    02:00 +19°C° 0.1 mm 2 mps 616 mmHg 54%
    03:00 +19°C° 0.1 mm 2 mps 615 mmHg 55%
    04:00 +18°C° 0.1 mm 2 mps 615 mmHg 56%
    05:00 +19°C° 0 mm 3 mps 615 mmHg 54%
    06:00 +19°C° 0 mm 4 mps 616 mmHg 52%
    07:00 +20°C° 0 mm 4 mps 616 mmHg 50%
    08:00 +21°C° 0.2 mm 6 mps 617 mmHg 44%
    09:00 +23°C° 0.2 mm 7 mps 617 mmHg 39%
    10:00 +24°C° 0.2 mm 9 mps 617 mmHg 34%
    11:00 +24°C° 0 mm 9 mps 617 mmHg 32%
    12:00 +24°C° 0 mm 9 mps 617 mmHg 30%
    13:00 +26°C° 0 mm 10 mps 617 mmHg 28%
    14:00 +24°C° 0 mm 10 mps 616 mmHg 27%
    15:00 +23°C° 0 mm 10 mps 616 mmHg 26%
    16:00 +23°C° 0 mm 9 mps 616 mmHg 26%
    17:00 +21°C° 0 mm 8 mps 616 mmHg 26%
    18:00 +20°C° 0 mm 6 mps 616 mmHg 26%
    19:00 +18°C° 0 mm 4 mps 616 mmHg 26%
    20:00 +18°C° 0 mm 3 mps 616 mmHg 29%
    21:00 +17°C° 0 mm 3 mps 616 mmHg 31%
    22:00 +16°C° 0 mm 2 mps 616 mmHg 34%
    23:00 +15°C° 0 mm 2 mps 616 mmHg 35%

    25 April, Thursday

    Time Temperature Precipitation Wind Pressure Humidity
    00:00 +15°C° 0 mm 1 mps 616 mmHg 37%
    01:00 +14°C° 0 mm 1 mps 615 mmHg 39%
    02:00 +14°C° 0 mm 1 mps 615 mmHg 40%
    03:00 +13°C° 0 mm 1 mps 615 mmHg 41%
    04:00 +12°C° 0 mm 0 mps 615 mmHg 42%
    05:00 +12°C° 0 mm 0 mps 616 mmHg 36%
    06:00 +13°C° 0 mm 0 mps 616 mmHg 31%
    07:00 +14°C° 0 mm 0 mps 617 mmHg 25%
    08:00 +16°C° 0 mm 1 mps 618 mmHg 22%
    09:00 +19°C° 0 mm 1 mps 618 mmHg 20%
    10:00 +19°C° 0 mm 2 mps 619 mmHg 18%
    11:00 +20°C° 0 mm 3 mps 618 mmHg 17%
    12:00 +20°C° 0 mm 4 mps 618 mmHg 16%
    13:00 +21°C° 0 mm 5 mps 618 mmHg 16%
    14:00 +21°C° 0 mm 5 mps 618 mmHg 16%
    15:00 +21°C° 0 mm 6 mps 618 mmHg 16%
    16:00 +21°C° 0 mm 6 mps 617 mmHg 17%
    17:00 +20°C° 0 mm 5 mps 617 mmHg 20%
    18:00 +19°C° 0 mm 4 mps 617 mmHg 23%
    19:00 +18°C° 0 mm 2 mps 617 mmHg 26%
    20:00 +17°C° 0 mm 2 mps 617 mmHg 29%
    21:00 +16°C° 0 mm 1 mps 617 mmHg 32%
    22:00 +16°C° 0 mm 1 mps 617 mmHg 35%
    23:00 +15°C° 0 mm 1 mps 617 mmHg 36%
    Show more